,,Stat6,,Stat2,,Stat8,,Stat9,,Stat10,,Wind1,,Wind1,
time,status,PA1M_AVG,status,PR1M_SUM,status,RH1M_AVG,status,SR1M_AVG,status,TA1M_AVG,status,W1dAve1m,status,W1sAve1m,
2006-04-10, 00:00:00,VALID,918.364,VALID,0,VALID,96.2096,VALID,-0.118866,VALID,19.0324,VALID,133,VALID,0.892578,
2006-04-10, 00:01:00,VALID,918.372,VALID,0,VALID,96.319,VALID,-0.20377,VALID,18.976,VALID,121,VALID,0.949751,
2006-04-10, 00:02:00,VALID,918.375,VALID,0,VALID,96.4665,VALID,-0.20377,VALID,18.9142,VALID,114,VALID,1.00877,
2006-04-10, 00:03:00,VALID,918.38,VALID,0,VALID,96.6,VALID,-0.20377,VALID,18.8418,VALID,117,VALID,1.12873,
2006-04-10, 00:04:00,VALID,918.397,VALID,0,VALID,96.7208,VALID,-0.186789,VALID,18.7673,VALID,107,VALID,1.17485,
2006-04-10, 00:05:00,VALID,918.413,VALID,0,VALID,96.7717,VALID,-0.118866,VALID,19.1824,VALID,122,VALID,1.23196,
2006-04-10, 00:06:00,VALID,918.426,VALID,0,VALID,96.8759,VALID,-0.186789,VALID,18.5592,VALID,124,VALID,1.42113,
2006-04-10, 00:07:00,VALID,918.445,VALID,0,VALID,97.1239,VALID,-0.0849042,VALID,18.9602,VALID,126,VALID,1.20503,
2006-04-10, 00:08:00,VALID,918.472,VALID,0,VALID,97.1519,VALID,-0.101885,VALID,18.6181,VALID,124,VALID,1.45876,
2006-04-10, 00:09:00,VALID,918.489,VALID,0,VALID,97.0845,VALID,-0.118866,VALID,19.3084,VALID,121,VALID,1.64577,
2006-04-10, 00:10:00,VALID,918.485,VALID,0,VALID,97.0629,VALID,-0.152827,VALID,19.0327,VALID,123,VALID,1.58292,
2006-04-10, 00:11:00,VALID,918.479,VALID,0,VALID,96.9573,VALID,-0.186789,VALID,17.7832,VALID,124,VALID,1.60347,
2006-04-10, 00:12:00,VALID,918.475,VALID,0,VALID,96.8556,VALID,-0.20377,VALID,18.4473,VALID,125,VALID,1.61287,
2006-04-10, 00:13:00,VALID,918.466,VALID,0,VALID,96.8123,VALID,-0.169808,VALID,18.8871,VALID,125,VALID,1.56917,
2006-04-10, 00:14:00,VALID,918.464,VALID,0,VALID,96.7653,VALID,-0.169808,VALID,17.9546,VALID,124,VALID,1.46205,
2006-04-10, 00:15:00,VALID,918.469,VALID,0,VALID,96.7615,VALID,-0.152827,VALID,18.1908,VALID,128,VALID,1.38978,
2006-04-10, 00:16:00,VALID,918.46,VALID,0,VALID,96.8607,VALID,-0.135847,VALID,18.7051,VALID,129,VALID,1.23789,
2006-04-10, 00:17:00,VALID,918.464,VALID,0,VALID,96.8543,VALID,-0.186789,VALID,18.4365,VALID,129,VALID,1.41016,
2006-04-10, 00:18:00,VALID,918.453,VALID,0,VALID,96.853,VALID,-0.169808,VALID,18.6714,VALID,126,VALID,1.22636,
2006-04-10, 00:19:00,VALID,918.456,VALID,0,VALID,96.9293,VALID,-0.186789,VALID,18.5755,VALID,130,VALID,1.13974,
2006-04-10, 00:20:00,VALID,918.459,VALID,0,VALID,96.8581,VALID,-0.186789,VALID,18.5781,VALID,128,VALID,1.30869,
2006-04-10, 00:21:00,VALID,918.468,VALID,0,VALID,96.8085,VALID,-0.20377,VALID,18.4001,VALID,138,VALID,1.07148,
2006-04-10, 00:22:00,VALID,918.462,VALID,0,VALID,96.736,VALID,-0.169808,VALID,19.2871,VALID,133,VALID,1.1002,
2006-04-10, 00:23:00,VALID,918.479,VALID,0,VALID,96.6063,VALID,-0.186789,VALID,18.7963,VALID,134,VALID,1.28943,
2006-04-10, 00:24:00,VALID,918.484,VALID,0,VALID,96.5644,VALID,-0.0849042,VALID,17.7718,VALID,132,VALID,1.00648,
2006-04-10, 00:25:00,VALID,918.492,VALID,0,VALID,96.544,VALID,-0.186789,VALID,19.6153,VALID,129,VALID,1.10499,
2006-04-10, 00:26:00,VALID,918.489,VALID,0,VALID,96.4805,VALID,-0.101885,VALID,18.8267,VALID,126,VALID,1.24722,
2006-04-10, 00:27:00,VALID,918.473,VALID,0,VALID,96.2465,VALID,-0.0849042,VALID,18.9678,VALID,122,VALID,1.53125,
2006-04-10, 00:28:00,VALID,918.475,VALID,0,VALID,96.0456,VALID,-0.101885,VALID,18.7446,VALID,124,VALID,1.53576,
2006-04-10, 00:29:00,VALID,918.482,VALID,0,VALID,95.9527,VALID,-0.101885,VALID,19.3454,VALID,125,VALID,1.31517,
2006-04-10, 00:30:00,VALID,918.492,VALID,0,VALID,95.8523,VALID,-0.101885,VALID,19.4488,VALID,125,VALID,1.24485,
2006-04-10, 00:31:00,VALID,918.494,VALID,0,VALID,95.7417,VALID,-0.101885,VALID,18.5868,VALID,117,VALID,1.22983,
2006-04-10, 00:32:00,VALID,918.507,VALID,0,VALID,95.7976,VALID,-0.20377,VALID,18.5369,VALID,121,VALID,1.07849,
2006-04-10, 00:33:00,VALID,918.507,VALID,0,VALID,95.8866,VALID,-0.186789,VALID,18.7019,VALID,124,VALID,0.956597,
2006-04-10, 00:34:00,VALID,918.5,VALID,0,VALID,95.9604,VALID,-0.20377,VALID,18.0435,VALID,113,VALID,0.95348,
2006-04-10, 00:35:00,VALID,918.486,VALID,0,VALID,95.9642,VALID,-0.186789,VALID,19.4052,VALID,112,VALID,1.04408,
2006-04-10, 00:36:00,VALID,918.471,VALID,0,VALID,95.8052,VALID,-0.169808,VALID,17.8619,VALID,113,VALID,1.11623,
2006-04-10, 00:37:00,VALID,918.48,VALID,0,VALID,95.7862,VALID,-0.186789,VALID,18.3703,VALID,114,VALID,0.889027,
2006-04-10, 00:38:00,VALID,918.479,VALID,0,VALID,95.7417,VALID,-0.186789,VALID,19.5569,VALID,114,VALID,0.817708,
2006-04-10, 00:39:00,VALID,918.46,VALID,0,VALID,95.7798,VALID,-0.0849042,VALID,17.774,VALID,115,VALID,0.919618,
2006-04-10, 00:40:00,VALID,918.456,VALID,0,VALID,95.7455,VALID,-0.101885,VALID,19.9546,VALID,115,VALID,0.661577,
2006-04-10, 00:41:00,VALID,918.439,VALID,0,VALID,95.7747,VALID,-0.186789,VALID,18.2422,VALID,115,VALID,0.686111,
2006-04-10, 00:42:00,VALID,918.43,VALID,0,VALID,95.8027,VALID,-0.20377,VALID,19.5464,VALID,115,VALID,0.675426,
2006-04-10, 00:43:00,VALID,918.431,VALID,0,VALID,95.9222,VALID,-0.186789,VALID,18.961,VALID,115,VALID,0.4871,
2006-04-10, 00:44:00,VALID,918.432,VALID,0,VALID,95.9744,VALID,-0.186789,VALID,18.5584,VALID,115,VALID,0.559956,
2006-04-10, 00:45:00,VALID,918.426,VALID,0,VALID,95.9858,VALID,-0.169808,VALID,18.9256,VALID,116,VALID,0.731585,
2006-04-10, 00:46:00,VALID,918.431,VALID,0,VALID,95.9298,VALID,-0.186789,VALID,18.6295,VALID,134,VALID,0.897321,
2006-04-10, 00:47:00,VALID,918.431,VALID,0,VALID,95.8485,VALID,-0.20377,VALID,17.1386,VALID,136,VALID,1.19957,
2006-04-10, 00:48:00,VALID,918.44,VALID,0,VALID,95.5891,VALID,-0.135847,VALID,18.2922,VALID,129,VALID,1.35884,
2006-04-10, 00:49:00,VALID,918.438,VALID,0,VALID,95.495,VALID,-0.152827,VALID,18.766,VALID,139,VALID,1.16555,
2006-04-10, 00:50:00,VALID,918.45,VALID,0,VALID,95.2775,VALID,-0.135847,VALID,18.6249,VALID,135,VALID,1.39862,
2006-04-10, 00:51:00,VALID,918.446,VALID,0,VALID,95.1923,VALID,-0.169808,VALID,18.9732,VALID,146,VALID,1.39063,
2006-04-10, 00:52:00,VALID,918.437,VALID,0,VALID,95.2915,VALID,-0.0849042,VALID,18.9985,VALID,137,VALID,1.65885,
2006-04-10, 00:53:00,VALID,918.447,VALID,0,VALID,95.397,VALID,-0.186789,VALID,19.451,VALID,137,VALID,1.52695,
2006-04-10, 00:54:00,VALID,918.451,VALID,0,VALID,95.4873,VALID,-0.186789,VALID,19.05,VALID,132,VALID,1.43917,
2006-04-10, 00:55:00,VALID,918.457,VALID,0,VALID,95.5649,VALID,-0.101885,VALID,18.5345,VALID,131,VALID,1.08975,
2006-04-10, 00:56:00,VALID,918.475,VALID,0,VALID,95.6183,VALID,-0.101885,VALID,19.331,VALID,126,VALID,0.944568,
2006-04-10, 00:57:00,VALID,918.483,VALID,0,VALID,95.6692,VALID,-0.0679233,VALID,18.4123,VALID,126,VALID,1.09593,
2006-04-10, 00:58:00,VALID,918.48,VALID,0,VALID,95.7086,VALID,-0.0849042,VALID,19.7274,VALID,122,VALID,0.974085,
2006-04-10, 00:59:00,VALID,918.495,VALID,0,VALID,95.7302,VALID,-0.118866,VALID,19.0489,VALID,124,VALID,0.946094,
2006-04-10, 01:00:00,VALID,918.495,VALID,0,VALID,95.7022,VALID,-0.118866,VALID,18.5933,VALID,127,VALID,0.929506,
2006-04-10, 01:01:00,VALID,918.487,VALID,0,VALID,95.5916,VALID,-0.0849042,VALID,18.8812,VALID,124,VALID,0.997093,
2006-04-10, 01:02:00,VALID,918.478,VALID,0,VALID,95.4136,VALID,-0.118866,VALID,17.5822,VALID,117,VALID,1.03659,
2006-04-10, 01:03:00,VALID,918.482,VALID,0,VALID,95.2457,VALID,-0.20377,VALID,18.534,VALID,126,VALID,0.975446,
2006-04-10, 01:04:00,VALID,918.492,VALID,0,VALID,95.0537,VALID,-0.20377,VALID,19.0947,VALID,131,VALID,0.864236,
2006-04-10, 01:05:00,VALID,918.503,VALID,0,VALID,94.9189,VALID,-0.186789,VALID,18.6595,VALID,128,VALID,1.02486,
2006-04-10, 01:06:00,VALID,918.491,VALID,0,VALID,94.8477,VALID,-0.118866,VALID,18.6418,VALID,128,VALID,1.10211,
2006-04-10, 01:07:00,VALID,918.494,VALID,0,VALID,94.8032,VALID,-0.101885,VALID,19.1333,VALID,134,VALID,1.04967,
2006-04-10, 01:08:00,VALID,918.482,VALID,0,VALID,94.7981,VALID,-0.101885,VALID,18.844,VALID,132,VALID,1.09737,
2006-04-10, 01:09:00,VALID,918.474,VALID,0,VALID,94.8134,VALID,-0.118866,VALID,19.44,VALID,135,VALID,1.18731,
2006-04-10, 01:10:00,VALID,918.468,VALID,0,VALID,94.8286,VALID,-0.186789,VALID,19.1599,VALID,142,VALID,1.26708,
2006-04-10, 01:11:00,VALID,918.463,VALID,0,VALID,94.8795,VALID,-0.186789,VALID,19.1864,VALID,135,VALID,1.23438,
2006-04-10, 01:12:00,VALID,918.464,VALID,0,VALID,94.8668,VALID,-0.118866,VALID,18.6687,VALID,140,VALID,1.34766,
2006-04-10, 01:13:00,VALID,918.435,VALID,0,VALID,94.8312,VALID,-0.135847,VALID,18.7515,VALID,137,VALID,1.39329,
2006-04-10, 01:14:00,VALID,918.438,VALID,0,VALID,94.7256,VALID,-0.101885,VALID,18.8134,VALID,145,VALID,1.1131,
2006-04-10, 01:15:00,VALID,918.417,VALID,0,VALID,94.6849,VALID,-0.101885,VALID,19.0677,VALID,138,VALID,0.993207,
2006-04-10, 01:16:00,VALID,918.405,VALID,0,VALID,94.7422,VALID,-0.101885,VALID,19.1115,VALID,139,VALID,1.13932,
2006-04-10, 01:17:00,VALID,918.394,VALID,0,VALID,94.8172,VALID,-0.135847,VALID,18.8978,VALID,138,VALID,1.06879,
2006-04-10, 01:18:00,VALID,918.381,VALID,0,VALID,94.8223,VALID,-0.135847,VALID,19.6888,VALID,132,VALID,1.31159,
2006-04-10, 01:19:00,VALID,918.359,VALID,0,VALID,94.8909,VALID,-0.169808,VALID,19.6051,VALID,133,VALID,1.02834,
2006-04-10, 01:20:00,VALID,918.36,VALID,0,VALID,94.8617,VALID,-0.135847,VALID,18.4517,VALID,131,VALID,1.41629,
2006-04-10, 01:21:00,VALID,918.358,VALID,0,VALID,94.8846,VALID,-0.169808,VALID,17.5779,VALID,127,VALID,1.39297,
2006-04-10, 01:22:00,VALID,918.36,VALID,0,VALID,94.9202,VALID,-0.118866,VALID,18.7148,VALID,127,VALID,1.21421,
2006-04-10, 01:23:00,VALID,918.373,VALID,0,VALID,94.8668,VALID,-0.118866,VALID,18.7745,VALID,129,VALID,1.2763,
2006-04-10, 01:24:00,VALID,918.397,VALID,0,VALID,94.8261,VALID,-0.118866,VALID,19.5593,VALID,127,VALID,1.39933,
2006-04-10, 01:25:00,VALID,918.404,VALID,0,VALID,94.8922,VALID,-0.101885,VALID,19.177,VALID,127,VALID,1.25,
2006-04-10, 01:26:00,VALID,918.414,VALID,0,VALID,94.9711,VALID,-0.101885,VALID,18.1894,VALID,127,VALID,1.1835,
2006-04-10, 01:27:00,VALID,918.404,VALID,0,VALID,95.0677,VALID,-0.101885,VALID,19.1054,VALID,128,VALID,1.26435,
2006-04-10, 01:28:00,VALID,918.402,VALID,0,VALID,95.1923,VALID,-0.118866,VALID,19.8974,VALID,127,VALID,1.26722,
2006-04-10, 01:29:00,VALID,918.386,VALID,0,VALID,95.4085,VALID,-0.118866,VALID,18.4155,VALID,129,VALID,1.39358,
2006-04-10, 01:30:00,VALID,918.379,VALID,0,VALID,95.6844,VALID,-0.101885,VALID,19.2954,VALID,127,VALID,1.30246,
2006-04-10, 01:31:00,VALID,918.381,VALID,0,VALID,95.9438,VALID,-0.152827,VALID,18.7693,VALID,130,VALID,1.3285,
2006-04-10, 01:32:00,VALID,918.367,VALID,0,VALID,96.0977,VALID,-0.118866,VALID,19.539,VALID,131,VALID,1.72852,
2006-04-10, 01:33:00,VALID,918.374,VALID,0,VALID,96.2109,VALID,-0.118866,VALID,18.1694,VALID,127,VALID,1.65034,
2006-04-10, 01:34:00,VALID,918.371,VALID,0,VALID,96.2299,VALID,-0.118866,VALID,17.9601,VALID,138,VALID,1.16824,
2006-04-10, 01:35:00,VALID,918.348,VALID,0,VALID,96.3431,VALID,-0.118866,VALID,19.6429,VALID,138,VALID,1.60273,
2006-04-10, 01:36:00,VALID,918.37,VALID,0,VALID,96.4563,VALID,-0.101885,VALID,17.1359,VALID,131,VALID,1.46403,
2006-04-10, 01:37:00,VALID,918.365,VALID,0,VALID,96.5059,VALID,-0.101885,VALID,18.7695,VALID,135,VALID,1.81993,
2006-04-10, 01:38:00,VALID,918.35,VALID,0,VALID,96.5059,VALID,-0.135847,VALID,18.3396,VALID,132,VALID,1.63121,
2006-04-10, 01:39:00,VALID,918.34,VALID,0,VALID,96.5695,VALID,-0.20377,VALID,19.0499,VALID,137,VALID,1.51905,
2006-04-10, 01:40:00,VALID,918.323,VALID,0,VALID,96.4995,VALID,-0.118866,VALID,18.9466,VALID,131,VALID,1.63529,
2006-04-10, 01:41:00,VALID,918.304,VALID,0,VALID,96.3686,VALID,-0.118866,VALID,19.1781,VALID,135,VALID,1.78544,
2006-04-10, 01:42:00,VALID,918.287,VALID,0,VALID,96.3266,VALID,-0.135847,VALID,19.0335,VALID,133,VALID,1.74237,
2006-04-10, 01:43:00,VALID,918.291,VALID,0,VALID,96.2083,VALID,-0.186789,VALID,19.4492,VALID,134,VALID,1.82613,
2006-04-10, 01:44:00,VALID,918.291,VALID,0,VALID,96.1358,VALID,-0.135847,VALID,18.4239,VALID,135,VALID,1.46875,
2006-04-10, 01:45:00,VALID,918.295,VALID,0,VALID,96.0468,VALID,-0.20377,VALID,19.2553,VALID,137,VALID,1.52992,
2006-04-10, 01:46:00,VALID,918.302,VALID,0,VALID,95.9489,VALID,-0.0849042,VALID,19.5411,VALID,140,VALID,1.137,
2006-04-10, 01:47:00,VALID,918.284,VALID,0,VALID,95.8637,VALID,-0.169808,VALID,19.4068,VALID,131,VALID,1.58916,
2006-04-10, 01:48:00,VALID,918.296,VALID,0,VALID,95.8637,VALID,-0.186789,VALID,18.3257,VALID,145,VALID,1.35387,
2006-04-10, 01:49:00,VALID,918.309,VALID,0,VALID,95.7811,VALID,-0.135847,VALID,18.9818,VALID,132,VALID,1.54878,
2006-04-10, 01:50:00,VALID,918.301,VALID,0,VALID,95.6526,VALID,-0.169808,VALID,18.2531,VALID,131,VALID,2.09375,
2006-04-10, 01:51:00,VALID,918.297,VALID,0,VALID,95.4822,VALID,-0.186789,VALID,19.1019,VALID,131,VALID,1.55868,
2006-04-10, 01:52:00,VALID,918.296,VALID,0,VALID,95.3932,VALID,-0.135847,VALID,19.4602,VALID,130,VALID,1.43203,
2006-04-10, 01:53:00,VALID,918.287,VALID,0,VALID,95.3818,VALID,-0.169808,VALID,18.2022,VALID,126,VALID,1.96146,
2006-04-10, 01:54:00,VALID,918.277,VALID,0,VALID,95.3182,VALID,-0.135847,VALID,19.3141,VALID,133,VALID,1.35671,
2006-04-10, 01:55:00,VALID,918.287,VALID,0,VALID,95.2445,VALID,-0.101885,VALID,18.8662,VALID,132,VALID,1.6263,
2006-04-10, 01:56:00,VALID,918.301,VALID,0,VALID,95.1631,VALID,-0.135847,VALID,18.6671,VALID,128,VALID,1.94754,
2006-04-10, 01:57:00,VALID,918.282,VALID,0,VALID,95.0995,VALID,-0.186789,VALID,19.8547,VALID,125,VALID,1.65988,
2006-04-10, 01:58:00,VALID,918.274,VALID,0,VALID,94.9405,VALID,-0.169808,VALID,19.7766,VALID,124,VALID,1.64996,
2006-04-10, 01:59:00,VALID,918.265,VALID,0,VALID,94.6201,VALID,-0.152827,VALID,19.2045,VALID,129,VALID,2.04211,
2006-04-10, 02:00:00,VALID,918.239,VALID,0,VALID,94.1534,VALID,-0.20377,VALID,19.5255,VALID,130,VALID,1.79439,
2006-04-10, 02:01:00,VALID,918.208,VALID,0,VALID,93.9309,VALID,-0.101885,VALID,18.5096,VALID,129,VALID,1.49528,
2006-04-10, 02:02:00,VALID,918.21,VALID,0,VALID,93.8508,VALID,-0.186789,VALID,19.6527,VALID,122,VALID,1.15048,
2006-04-10, 02:03:00,VALID,918.174,VALID,0,VALID,93.7936,VALID,-0.169808,VALID,19.4707,VALID,129,VALID,1.42891,
2006-04-10, 02:04:00,VALID,918.15,VALID,0,VALID,93.749,VALID,-0.0849042,VALID,18.4999,VALID,132,VALID,1.07386,
2006-04-10, 02:05:00,VALID,918.14,VALID,0,VALID,93.7109,VALID,-0.101885,VALID,18.6748,VALID,128,VALID,1.16687,
2006-04-10, 02:06:00,VALID,918.145,VALID,0,VALID,93.7427,VALID,-0.101885,VALID,18.9887,VALID,133,VALID,0.985283,
2006-04-10, 02:07:00,VALID,918.138,VALID,0,VALID,93.8546,VALID,-0.118866,VALID,18.5207,VALID,134,VALID,1.12252,
2006-04-10, 02:08:00,VALID,918.135,VALID,0,VALID,93.9271,VALID,-0.20377,VALID,18.653,VALID,132,VALID,1.11719,
2006-04-10, 02:09:00,VALID,918.142,VALID,0,VALID,94.0606,VALID,-0.20377,VALID,18.3872,VALID,141,VALID,0.64668,
2006-04-10, 02:10:00,VALID,918.14,VALID,0,VALID,94.1852,VALID,-0.20377,VALID,18.888,VALID,133,VALID,0.990057,
2006-04-10, 02:11:00,VALID,918.132,VALID,0,VALID,94.2907,VALID,-0.169808,VALID,19.3869,VALID,125,VALID,0.987165,
2006-04-10, 02:12:00,VALID,918.124,VALID,0,VALID,94.4904,VALID,-0.118866,VALID,19.5527,VALID,133,VALID,0.971227,
2006-04-10, 02:13:00,VALID,918.128,VALID,0,VALID,94.6214,VALID,-0.0679233,VALID,18.1608,VALID,128,VALID,0.751202,
2006-04-10, 02:14:00,VALID,918.109,VALID,0,VALID,94.8642,VALID,-0.101885,VALID,19.913,VALID,122,VALID,1.00037,
2006-04-10, 02:15:00,VALID,918.099,VALID,0,VALID,95.0982,VALID,-0.101885,VALID,18.4466,VALID,126,VALID,0.985863,
2006-04-10, 02:16:00,VALID,918.076,VALID,0,VALID,95.2661,VALID,-0.118866,VALID,19.1782,VALID,123,VALID,1.18955,
2006-04-10, 02:17:00,VALID,918.065,VALID,0,VALID,95.289,VALID,-0.118866,VALID,19.1208,VALID,116,VALID,1.4615,
2006-04-10, 02:18:00,VALID,918.026,VALID,0,VALID,95.1898,VALID,-0.101885,VALID,18.3302,VALID,114,VALID,1.38455,
2006-04-10, 02:19:00,VALID,917.997,VALID,0,VALID,95.0766,VALID,-0.118866,VALID,18.4437,VALID,117,VALID,1.25745,
2006-04-10, 02:20:00,VALID,917.967,VALID,0,VALID,94.9723,VALID,-0.186789,VALID,18.0937,VALID,110,VALID,1.22173,
2006-04-10, 02:21:00,VALID,917.94,VALID,0,VALID,94.9126,VALID,-0.118866,VALID,18.6944,VALID,104,VALID,1.22556,
2006-04-10, 02:22:00,VALID,917.916,VALID,0,VALID,94.8973,VALID,-0.101885,VALID,18.1315,VALID,99,VALID,1.15476,
2006-04-10, 02:23:00,VALID,917.896,VALID,0,VALID,94.8604,VALID,-0.118866,VALID,18.409,VALID,105,VALID,1.36612,
2006-04-10, 02:24:00,VALID,917.872,VALID,0,VALID,94.8464,VALID,-0.101885,VALID,18.4302,VALID,113,VALID,1.44358,
2006-04-10, 02:25:00,VALID,917.854,VALID,0,VALID,94.8007,VALID,-0.101885,VALID,18.9239,VALID,109,VALID,1.39551,
2006-04-10, 02:26:00,VALID,917.835,VALID,0,VALID,94.7752,VALID,-0.118866,VALID,18.5151,VALID,114,VALID,1.43661,
2006-04-10, 02:27:00,VALID,917.812,VALID,0,VALID,94.7638,VALID,-0.20377,VALID,19.3004,VALID,120,VALID,1.62872,
2006-04-10, 02:28:00,VALID,917.796,VALID,0,VALID,94.774,VALID,-0.101885,VALID,17.9558,VALID,119,VALID,1.77663,
2006-04-10, 02:29:00,VALID,917.771,VALID,0,VALID,94.7511,VALID,-0.101885,VALID,19.8941,VALID,119,VALID,1.46857,
2006-04-10, 02:30:00,VALID,917.76,VALID,0,VALID,94.8236,VALID,-0.101885,VALID,19.0421,VALID,115,VALID,1.43508,
2006-04-10, 02:31:00,VALID,917.747,VALID,0,VALID,94.9711,VALID,-0.135847,VALID,19.2474,VALID,113,VALID,1.50449,
2006-04-10, 02:32:00,VALID,917.728,VALID,0,VALID,95.0435,VALID,-0.20377,VALID,18.9877,VALID,114,VALID,1.24764,
2006-04-10, 02:33:00,VALID,917.727,VALID,0,VALID,95.2317,VALID,-0.20377,VALID,18.2788,VALID,120,VALID,1.49014,
2006-04-10, 02:34:00,VALID,917.711,VALID,0,VALID,95.3258,VALID,-0.169808,VALID,18.3933,VALID,111,VALID,1.43266,
2006-04-10, 02:35:00,VALID,917.708,VALID,0,VALID,95.4326,VALID,-0.152827,VALID,17.7307,VALID,107,VALID,1.3125,
2006-04-10, 02:36:00,VALID,917.69,VALID,0,VALID,95.5255,VALID,-0.0679233,VALID,18.9716,VALID,104,VALID,1.25112,
2006-04-10, 02:37:00,VALID,917.683,VALID,0,VALID,95.6514,VALID,-0.118866,VALID,19.1701,VALID,101,VALID,1.30208,
2006-04-10, 02:38:00,VALID,917.677,VALID,0,VALID,95.7709,VALID,-0.20377,VALID,18.1817,VALID,109,VALID,1.3948,
2006-04-10, 02:39:00,VALID,917.666,VALID,0,VALID,95.9095,VALID,-0.186789,VALID,18.6011,VALID,106,VALID,1.50725,
2006-04-10, 02:40:00,VALID,917.672,VALID,0,VALID,95.9489,VALID,-0.169808,VALID,18.8432,VALID,103,VALID,0.995117,
2006-04-10, 02:41:00,VALID,917.667,VALID,0,VALID,96.0557,VALID,-0.169808,VALID,18.6545,VALID,120,VALID,1.36852,
2006-04-10, 02:42:00,VALID,917.656,VALID,0,VALID,96.1053,VALID,-0.186789,VALID,18.3351,VALID,109,VALID,1.24257,
2006-04-10, 02:43:00,VALID,917.651,VALID,0,VALID,96.1028,VALID,-0.700628,VALID,18.4902,VALID,101,VALID,1.08836,
2006-04-10, 02:44:00,VALID,917.652,VALID,0,VALID,96.2999,VALID,-0.101885,VALID,19.0064,VALID,102,VALID,1.19705,
2006-04-10, 02:45:00,VALID,917.637,VALID,0,VALID,96.4131,VALID,-0.101885,VALID,18.7679,VALID,95,VALID,1.2868,
2006-04-10, 02:46:00,VALID,917.626,VALID,0,VALID,96.5262,VALID,-0.186789,VALID,19.1461,VALID,107,VALID,1.40263,
2006-04-10, 02:47:00,VALID,917.603,VALID,0,VALID,96.6254,VALID,-0.20377,VALID,18.4752,VALID,120,VALID,1.56357,
2006-04-10, 02:48:00,VALID,917.584,VALID,0,VALID,96.6699,VALID,-0.20377,VALID,18.6572,VALID,124,VALID,1.58538,
2006-04-10, 02:49:00,VALID,917.558,VALID,0,VALID,96.6369,VALID,-0.20377,VALID,18.3841,VALID,128,VALID,1.46964,
2006-04-10, 02:50:00,VALID,917.53,VALID,0,VALID,96.5822,VALID,-0.169808,VALID,17.9718,VALID,125,VALID,1.18676,
2006-04-10, 02:51:00,VALID,917.51,VALID,0,VALID,96.5389,VALID,-0.0849042,VALID,17.7241,VALID,123,VALID,1.20508,
2006-04-10, 02:52:00,VALID,917.495,VALID,0,VALID,96.5288,VALID,-0.101885,VALID,19.0787,VALID,126,VALID,1.47674,
2006-04-10, 02:53:00,VALID,917.482,VALID,0,VALID,96.497,VALID,-0.101885,VALID,17.8771,VALID,121,VALID,1.72741,
2006-04-10, 02:54:00,VALID,917.476,VALID,0,VALID,96.4652,VALID,-0.101885,VALID,18.4723,VALID,115,VALID,1.60316,
2006-04-10, 02:55:00,VALID,917.475,VALID,0,VALID,96.338,VALID,-0.101885,VALID,18.3954,VALID,110,VALID,1.46039,
2006-04-10, 02:56:00,VALID,917.454,VALID,0,VALID,96.2388,VALID,-0.0849042,VALID,19.308,VALID,117,VALID,1.31622,
2006-04-10, 02:57:00,VALID,917.441,VALID,0,VALID,96.1943,VALID,-0.101885,VALID,18.1128,VALID,119,VALID,1.54506,
2006-04-10, 02:58:00,VALID,917.429,VALID,0,VALID,96.1142,VALID,-0.0849042,VALID,19.0629,VALID,113,VALID,1.58672,
2006-04-10, 02:59:00,VALID,917.411,VALID,0,VALID,95.9375,VALID,-0.0849042,VALID,18.1615,VALID,118,VALID,1.60249,
2006-04-10, 03:00:00,VALID,917.401,VALID,0,VALID,95.8523,VALID,-0.186789,VALID,17.9841,VALID,120,VALID,1.84133,
2006-04-10, 03:01:00,VALID,917.392,VALID,0,VALID,95.7455,VALID,-0.118866,VALID,18.8457,VALID,124,VALID,1.70879,
2006-04-10, 03:02:00,VALID,917.393,VALID,0,VALID,95.6666,VALID,-0.186789,VALID,19.0147,VALID,119,VALID,1.52024,
2006-04-10, 03:03:00,VALID,917.371,VALID,0,VALID,95.6857,VALID,-0.20377,VALID,17.9163,VALID,115,VALID,1.77435,
2006-04-10, 03:04:00,VALID,917.36,VALID,0,VALID,95.6132,VALID,-0.186789,VALID,18.7184,VALID,110,VALID,1.6625,
2006-04-10, 03:05:00,VALID,917.346,VALID,0,VALID,95.5751,VALID,-0.186789,VALID,18.2883,VALID,114,VALID,1.65569,
2006-04-10, 03:06:00,VALID,917.342,VALID,0,VALID,95.6158,VALID,-0.152827,VALID,18.9342,VALID,115,VALID,1.65021,
2006-04-10, 03:07:00,VALID,917.323,VALID,0,VALID,95.6069,VALID,-0.118866,VALID,18.57,VALID,105,VALID,1.371,
2006-04-10, 03:08:00,VALID,917.305,VALID,0,VALID,95.7722,VALID,-0.152827,VALID,17.5766,VALID,116,VALID,1.7798,
2006-04-10, 03:09:00,VALID,917.283,VALID,0,VALID,95.8892,VALID,-0.118866,VALID,18.4919,VALID,114,VALID,1.69495,
2006-04-10, 03:10:00,VALID,917.263,VALID,0,VALID,95.907,VALID,-0.101885,VALID,18.5385,VALID,115,VALID,1.54815,
2006-04-10, 03:11:00,VALID,917.249,VALID,0,VALID,96.0087,VALID,-0.135847,VALID,17.594,VALID,118,VALID,1.46766,
2006-04-10, 03:12:00,VALID,917.234,VALID,0,VALID,96.0239,VALID,-0.169808,VALID,18.2152,VALID,123,VALID,1.49635,
2006-04-10, 03:13:00,VALID,917.209,VALID,0,VALID,96.0761,VALID,-0.268552,VALID,18.7478,VALID,124,VALID,1.48476,
2006-04-10, 03:14:00,VALID,917.206,VALID,0,VALID,96.0519,VALID,-0.118866,VALID,18.7046,VALID,127,VALID,1.46738,
2006-04-10, 03:15:00,VALID,917.193,VALID,0,VALID,95.912,VALID,-0.152827,VALID,17.4483,VALID,130,VALID,1.28008,
2006-04-10, 03:16:00,VALID,917.19,VALID,0,VALID,95.8319,VALID,-0.135847,VALID,18.7949,VALID,126,VALID,1.40718,
2006-04-10, 03:17:00,VALID,917.173,VALID,0,VALID,95.7505,VALID,-0.152827,VALID,17.9396,VALID,128,VALID,1.57101,
2006-04-10, 03:18:00,VALID,917.159,VALID,0,VALID,95.5471,VALID,-0.152827,VALID,17.995,VALID,132,VALID,1.49673,
2006-04-10, 03:19:00,VALID,917.143,VALID,0,VALID,95.3424,VALID,-0.135847,VALID,18.1581,VALID,123,VALID,1.5908,
2006-04-10, 03:20:00,VALID,917.138,VALID,0,VALID,95.1605,VALID,-0.186789,VALID,18.9635,VALID,132,VALID,1.65941,
2006-04-10, 03:21:00,VALID,917.118,VALID,0,VALID,94.9634,VALID,-0.0849042,VALID,18.431,VALID,128,VALID,1.63477,
2006-04-10, 03:22:00,VALID,917.103,VALID,0,VALID,94.8134,VALID,-0.186789,VALID,18.6737,VALID,134,VALID,1.5971,
2006-04-10, 03:23:00,VALID,917.084,VALID,0,VALID,94.7256,VALID,-0.186789,VALID,18.3928,VALID,132,VALID,0.939732,
2006-04-10, 03:24:00,VALID,917.072,VALID,0,VALID,94.629,VALID,-0.20377,VALID,18.8588,VALID,135,VALID,1.28943,
2006-04-10, 03:25:00,VALID,917.066,VALID,0,VALID,94.6226,VALID,-0.20377,VALID,18.6856,VALID,123,VALID,1.02004,
2006-04-10, 03:26:00,VALID,917.056,VALID,0,VALID,94.6226,VALID,-0.20377,VALID,18.3526,VALID,131,VALID,0.998884,
2006-04-10, 03:27:00,VALID,917.05,VALID,0,VALID,94.5438,VALID,-0.20377,VALID,19.613,VALID,132,VALID,1.04457,
2006-04-10, 03:28:00,VALID,917.052,VALID,0,VALID,94.4967,VALID,-0.186789,VALID,18.0454,VALID,129,VALID,1.05799,
2006-04-10, 03:29:00,VALID,917.047,VALID,0,VALID,94.4077,VALID,-0.20377,VALID,18.9631,VALID,116,VALID,1.04869,
2006-04-10, 03:30:00,VALID,917.033,VALID,0,VALID,94.3556,VALID,-0.186789,VALID,18.6644,VALID,119,VALID,0.907703,
2006-04-10, 03:31:00,VALID,917.044,VALID,0,VALID,94.3645,VALID,-0.20377,VALID,19.141,VALID,140,VALID,0.773619,
2006-04-10, 03:32:00,VALID,917.059,VALID,0,VALID,94.3556,VALID,-0.186789,VALID,19.1167,VALID,137,VALID,0.363582,